This is the latest recevied weather packets stored in our database for station/object KG6QHD-13. If no packets are shown the sender has not sent any weather packets the latest 10 day(s).
| Time | Temp. | Humidity | Pressure | Rain* | Wind** | Luminosity | Snow |
|---|---|---|---|---|---|---|---|
| 1778089549 | -1.67° C | 89% | 1020 hPa | 0.25 mm | - | 156 W/m² | - |
| 1778088049 | -1.67° C | 89% | 1020 hPa | 0 mm | - | 139 W/m² | - |
| 1778087448 | -1.67° C | 89% | 1019.8 hPa | 0 mm | - | 135 W/m² | - |
| 1778086548 | -1.67° C | 88% | 1019.3 hPa | 0 mm | - | 121 W/m² | - |
| 1778084747 | -2.22° C | 89% | 1019.5 hPa | 0 mm | - | 69 W/m² | - |
| 1778082648 | -2.78° C | 90% | 1019.1 hPa | 0 mm | - | 72 W/m² | - |
| 1778078757 | -3.33° C | 91% | 1018.3 hPa | 0 mm | - | 70 W/m² | - |
| 1778078448 | -3.33° C | 91% | 1018.4 hPa | 0 mm | - | 72 W/m² | - |
| 1778077854 | -3.33° C | 92% | 1018.4 hPa | 0 mm | - | 58 W/m² | - |
| 1778077248 | -3.33° C | 92% | 1018.4 hPa | 0 mm | - | 44 W/m² | - |
| 1778076049 | -3.33° C | 92% | 1018.3 hPa | 0 mm | - | 28 W/m² | - |
| 1778075150 | -3.33° C | 92% | 1018.2 hPa | 0 mm | - | 19 W/m² | - |
| 1778073354 | -3.89° C | 92% | 1017.7 hPa | 0 mm | - | 19 W/m² | - |
| 1778073044 | -3.89° C | 92% | 1017.5 hPa | 0 mm | - | 21 W/m² | - |
| 1778070344 | -3.89° C | 92% | 1017.1 hPa | 0 mm | - | 0 W/m² | - |
| 1778066745 | -3.33° C | 91% | 1016.8 hPa | 0 mm | - | 0 W/m² | - |
| 1778066151 | -3.33° C | 91% | 1016.8 hPa | 0 mm | - | 0 W/m² | - |
| 1778065548 | -3.33° C | 91% | 1016.6 hPa | 0 mm | - | 0 W/m² | - |
| 1778064647 | -3.33° C | 91% | 1016.5 hPa | 0 mm | - | 0 W/m² | - |
| 1778063145 | -2.78° C | 91% | 1016.2 hPa | 0 mm | - | 0 W/m² | - |
| 1778061044 | -2.78° C | 90% | 1016.2 hPa | 0 mm | - | 0 W/m² | - |
| 1778058958 | -2.78° C | 89% | 1016 hPa | 0 mm | - | 0 W/m² | - |
| 1778058348 | -2.22° C | 89% | 1015.9 hPa | 0 mm | - | 0 W/m² | - |
| 1778055971 | -2.22° C | 90% | 1016.1 hPa | 0 mm | - | 0 W/m² | - |
| 1778054744 | -2.78° C | 90% | 1016 hPa | 0 mm | - | 0 W/m² | - |
* Rain latest hour (hover to see other rain measurements)
** Current wind speed in m/s (hover to see current wind gust speed)